Погода Звериноголовская

Погода Звериноголовская : погода сейчас, прогноз погоды и архив. Всё, что Вы хотите узнать о погоде Звериноголовская!

Поиск расширенной информации на нашем сайте:

Другие новости

Новости СМИ2

Главная страница сайта

Новости сайта

03.07.2017

Напоминаем, что на нашем специализированном сайте Метеоцентр.Азия вы можете получить высокодетализированные автоматические прогнозы погоды по пунктам России, СНГ и мира в авиационном формате (включающие направление и скорость ветра, видимость, явления погоды, количество и форму облачности, нижнюю и верхнюю границу облачности).


Погода Звериноголовская - сегодня

Время (UTC), дата Ветер
(°,м/с) 
Видим.   Явления Облачность Т
(°С)
Тd
(°С)
f(%) Тe
(°С)
Pmin
(гПа)
dP
(гПа)
Po
(мм)
O2
(г/м3)
Тmin Tmax R s Состояние
почвы
00 17.10.17 100 (В) 10 км    ясно 
+3 -1.8 71 1014.9  -1  750  299           
03 17.10.17 100 (В) 7-10{11}  20000 м    6/0 верхняя 
[Cs]
+2.4 -2 73 -1  1014  -0.9  750  300  +2        сухая 
06 17.10.17 110 (В) 7-11{11}  20000 м    6/0 верхняя 
[Cs]
+10.1 -0.4 48 +8  1012.9  -0.6  749  291           
09 17.10.17 110 (В) 7-10{12}  20000 м    4/0 верхняя 
[Cs]
+14.9 -1 34 +14  1010.7  -2  748  286           
12 17.10.17 100 (В) 7-10{13}  20000 м    5/0 верхняя 
[Cs]
+12 +0 44 +11  1009.3  -1.5  746  288           
15 17.10.17 110 (В) 8-11{12}  10 км    10/0 средняя 
[Ac As]
+8.1 +1.7 64 +6  1009.2  -0.3  746  292    +15.1       
18 17.10.17 100 (В) 7-10{13}  10 км    10/0 средняя 
[Ac As]
+4.8 +1.3 78 +2  1007.7  -1.7  745  295           
21 17.10.17 100 (В) 6{11}  10 км    10/0 средняя 
[Ac As]
+4.5 +1.4 80 +2  1005.7  -1.9  744  295           
00 18.10.17 100 (В) 5{10}  10 км    8/0 средняя 
[Ac As]
+2.7 +0.9 88 1003.8  -2  742  296           
03 18.10.17 090 (В) 5{10}  20000 м    10/5 600 м средняя 
[Frnb|Ac As]
+3.8 +1.7 86 +1  1003.2  -0.6  742  294  +2.7        сухая 
06 18.10.17 070 (В) 20000 м    9/8 600 м средняя 
[Sc|Ac As]
+6.5 +2.3 74 +5  1001.3  -1.7  740  291           
09 18.10.17 050 (СВ) 20000 м    9/8 600 м средняя 
[Sc|Ac As]
+8.5 +2.7 67 +9  1001  -0.2  740  289           
12 18.10.17 030 (СВ) 20000 м  {дождь}  10/10 600 м 
[Sc]
+6.5 +4 84 +6  1001.3  0.2  740  291           
15 18.10.17 010 (С) 4000 м  слаб. дождь  10/10 600 м 
[Sc]
+5.8 +4.8 93 +6  1001.8  0.5  741  291    +9     
18 18.10.17 330 (СЗ) 4000 м  слаб. морось{дождь}  10/10 600 м 
[St]
+5.6 +4.7 94 +6  1002.4  0.6  741  292           
21 18.10.17 190 (Ю) 10 км  {морось}  10/10 600 м 
[Sc]
+5.7 +4.4 91 +5  1002.7  0.3  741  292           
00 19.10.17 210 (ЮЗ) 10 км  {морось}  10/10 600 м 
[Sc]
+5.4 +4.3 93 +5  1002.8  0.1  741  292           
03 19.10.17 180 (Ю) 20000 м    10/10 600 м 
[Sc]
+4.7 +3.7 93 +6  1003.6  0.7  742  293  +4.7      сухая 
06 19.10.17 210 (ЮЗ) 4000 м  слаб. морось  10/10 600 м 
[St]
+5.2 +4.3 94 +5  1003.8  0.2  742  293  +4.6         
09 19.10.17 220 (ЮЗ) 4000 м  слаб. морось{дождь}  10/10 600 м 
[St]
+5.9 +5 94 +6  1003.7  742  292           
12 19.10.17 210 (ЮЗ) 20000 м  {дождь, морось}  9/5 600 м средняя 
[Cu Sc|Ac trans]
+5.9 +3.5 85 +6  1004.3  0.5  743  292           
15 19.10.17 200 (Ю) 10 км    10/10 600 м 
[Sc]
+5.5 +2.9 83 +4  1003.4  -0.8  742  293    +6.6  0.4     
18 19.10.17 200 (Ю) 10 км    10/10 600 м 
[Sc]
+6.2 +4.1 86 +4  1001.4  -1.9  740  291           
21 19.10.17 250 (З) 10 км    10/10 600 м 
[Sc]
+6.7 +4.7 87 +7  1001.2  -0.2  740  290           
00 20.10.17 250 (З) 10 км    6/3 600 м средняя 
[Sc|Ac As]
+3 +0.4 83 +4  1002.9  1.4  741  295           
Время (UTC), дата Ветер
(°,м/с) 
Видим.   Явления Облачность Т
(°С)
Тd
(°С)
f(%) Тe
(°С)
Pmin
(гПа)
dP
(гПа)
Po
(мм)
O2
(г/м3)
Тmin Tmax R s Состояние
почвы

Для получения пояснительной информации подведите курсор к названию столбца.

ПОГОДА Звериноголовская - архив

Всё, что Вы хотите узнать о погоде Звериноголовская - удобно и подробно!

Выберите нужную дату (начиная с 1 января 2015* года) и нажмите кнопку "Найти".
Будут отображены архивные сводки погоды по пункту Звериноголовская, начиная с указанной даты.


Отображать данные в формате CSV (для использования в таблицах Excel)


Внимание! Наш архив погоды предназначен исключительно для личного некоммерческого использования в познавательных целях. Если Вам необходимы официальные справки о состоянии погоды (для производственных, юридических, коммерческих и т.п. целей), обращайтесь в органы Росгидромета.

*Примечание: данная дата относится к архиву по метеостанциям СССР (Россия, СНГ, Балтия).
Архив по метеостанциям Зарубежной Европы и Азии (кроме Китая) хранится 10 дней, по другим регионам земного шара (Китай, Африка, Америка, Австралия, Океания) - 1 день.

Звериноголовская - район местоположения метеостанции


Название, широта, долгота, высота метеостанции:
Звериноголовская 54.5°ш. 64.9°д. 117 м над ур. моря [Российская Федерация]

Дополнительная информация

В oтличие oт бoльшинства пoгoдных сайтoв мы публикуем пoдрoбную метеoинфoрмацию в детальнoм прoфессиoнальнoм фoрмате.

Характеристики температуры и влажнoсти вoздуха измеряются на высoте 2 м в тени вдали oт зданий и деревьев.
Скoрoсть ветра измеряется на высoте 10 м (на урoвне рoста челoвека скoрoсть ветра ниже в 1.5-2 раза). Если метеoстанция нахoдится в гoрoде или в лесу, тo скoрoсть ветра занижена на 2-4 м/с пo сравнению с oткрытым местoм. Скoрoсть ветра над акватoриями крупных рек и oзёр, а также на вершинах хoлмoв на 2-5 м/с выше, чем в oбычных услoвиях.
Атмoсфернoе давление в разных тoчках местнoсти мoжет значительнo oтличаться oт давления на метеoстанции, в зависимoсти oт услoвий рельефа (при пoдъёме на 10 м давление пoнижается примернo на 1 мм рт.ст.).